カタログに戻る

IRIDE-MS1-EAG2-8

運用中科学SSO
NORAD 66702·PAYLOAD·🇮🇹 Italy

打ち上げ Nov 28, 2025 から Vandenberg Space Force Base

Loading…

次のパス (今後24時間)

TLE

最新Source: Space-Track

元期: Sep 14, 2026, 14:53 UTC

1 66702U 25276AN  26257.62069428  .00005585  00000-0  25508-3 0  9998
2 66702  97.4118 329.7415 0005666  78.9801 281.2071 15.20970114 44010

AllMySatでIRIDE-MS1-EAG2-8をリアルタイム追跡

Download on the App Store